Sexton Summit, OR

4:04 AM PDT on March 30, 2017 (GMT -0700)
Sexton Summit

Weather History for KSXT - August, 2014

Change the Weather History Date:

Thursday, August 14, 2014

  Actual Average Record
Temperature  
Mean Temperature 58 °F -  
Max Temperature 69 °F 74 °F 95 °F (2008)
Min Temperature 51 °F 52 °F 44 °F (1999)
Degree Days  
Heating Degree Days 6    
Growing Degree Days 8 (Base 50)    
Moisture  
Dew Point 52 °F    
Average Humidity 87    
Maximum Humidity 100    
Minimum Humidity 56    
Precipitation  
Precipitation 0.00 in - - ()
Sea Level Pressure  
Sea Level Pressure 30.03 in    
Wind  
Wind Speed 4 mph (North)    
Max Wind Speed 9 mph    
Max Gust Speed -    
Visibility 8 miles    
Events Fog    
Averages and records for this station are not official NWS values.
T = Trace of Precipitation, MM = Missing Value Source: NWS Daily Summary

Daily Weather History Graph

Daily Weather History Graph

Search for Another Location

Airport or City:

Trip Planner

Search our weather history database for the weather conditions in past years. The results will help you decide how hot, cold, wet, or windy it might be!

Date:

Astronomy

Aug. 14, 2014 Rise Set
Actual Time 6:19 AM PDT 8:16 PM PDT
Civil Twilight 5:48 AM PDT 8:46 PM PDT
Nautical Twilight 5:11 AM PDT 9:23 PM PDT
Astronomical Twilight 4:30 AM PDT 10:04 PM PDT
Moon 10:35 PM PDT (8/14) 11:09 AM PDT (8/14)
Length of Visible Light 14h 58m
Length of Day
13h 57m
Waning Gibbous, 78% of the Moon is Illuminated
Aug 14
Waning Gibbous
Aug 17
Last Quarter
Aug 25
New
Sep 2
First Quarter
Sep 8
Full

Hourly Weather History & Observations

Time (PDT) Temp. Dew Point Humidity Pressure Visibility Wind Dir Wind Speed Gust Speed Precip Events Conditions
12:56 AM 53.1 °F 53.1 °F 100% 30.01 in 0.2 mi Calm Calm - N/A Fog Fog
1:56 AM 52.0 °F 52.0 °F 100% 30.01 in 0.2 mi North 6.9 mph - N/A Fog Fog
2:56 AM 52.0 °F 52.0 °F 100% 29.99 in 0.2 mi NNE 8.1 mph - N/A Fog Fog
3:19 AM 52.0 °F 52.0 °F 100% 30.08 in 0.2 mi NE 5.8 mph - N/A Fog Fog
3:26 AM 52.0 °F 52.0 °F 100% 30.08 in 0.5 mi NE 4.6 mph - N/A Fog Fog
3:34 AM 52.0 °F 52.0 °F 100% 30.08 in 0.8 mi Calm Calm - N/A   Overcast
3:37 AM 52.0 °F 52.0 °F 100% 30.09 in 1.5 mi North 3.5 mph - N/A   Overcast
3:45 AM 52.0 °F 52.0 °F 100% 30.08 in 3.0 mi East 3.5 mph - N/A   Overcast
3:54 AM 51.8 °F 51.8 °F 100% 30.09 in 9.0 mi NE 4.6 mph - N/A   Overcast
3:56 AM 51.1 °F 51.1 °F 100% 30.02 in 9.0 mi NE 4.6 mph - N/A   Overcast
4:06 AM 51.1 °F 51.1 °F 100% 30.09 in 10.0 mi NE 5.8 mph - N/A   Overcast
4:27 AM 51.1 °F 50.0 °F 96% 30.08 in 10.0 mi NE 4.6 mph - N/A   Mostly Cloudy
4:56 AM 52.0 °F 51.1 °F 97% 30.00 in 10.0 mi North 6.9 mph - N/A   Mostly Cloudy
5:56 AM 52.0 °F 51.1 °F 97% 30.00 in 10.0 mi North 9.2 mph - N/A   Overcast
6:06 AM 52.0 °F 51.1 °F 97% 30.07 in 10.0 mi NNE 5.8 mph - N/A   Overcast
6:56 AM 52.0 °F 51.1 °F 97% 30.00 in 10.0 mi NNE 6.9 mph - N/A   Overcast
7:56 AM 55.0 °F 52.0 °F 89% 30.01 in 10.0 mi Calm Calm - N/A   Mostly Cloudy
8:12 AM 53.1 °F 52.0 °F 96% 30.09 in 0.8 mi ESE 3.5 mph - N/A   Overcast
8:15 AM 53.1 °F 52.0 °F 96% 30.09 in 3.0 mi ESE 3.5 mph - N/A   Mostly Cloudy
8:56 AM 55.0 °F 52.0 °F 89% 30.02 in 10.0 mi Calm Calm - N/A   Mostly Cloudy
9:56 AM 55.9 °F 52.0 °F 87% 30.02 in 10.0 mi Calm Calm - N/A   Overcast
10:15 AM 55.0 °F 53.1 °F 93% 30.09 in 7.0 mi Calm Calm - N/A   Overcast
10:56 AM 55.0 °F 51.1 °F 86% 30.02 in 10.0 mi North 4.6 mph - N/A   Overcast
11:11 AM 55.9 °F 52.0 °F 87% 30.09 in 10.0 mi North 3.5 mph - N/A   Overcast
11:30 AM 55.9 °F 53.1 °F 90% 30.09 in 10.0 mi NNW 3.5 mph - N/A   Overcast
11:56 AM 57.0 °F 52.0 °F 83% 30.01 in 10.0 mi Calm Calm - N/A   Overcast
12:04 PM 57.0 °F 52.0 °F 83% 30.08 in 10.0 mi Calm Calm - N/A   Overcast
12:19 PM 57.9 °F 53.1 °F 84% 30.08 in 10.0 mi Calm Calm - N/A   Overcast
12:56 PM 59.0 °F 52.0 °F 78% 29.99 in 10.0 mi North - - N/A   Mostly Cloudy
1:14 PM 57.9 °F 50.0 °F 75% 30.07 in 10.0 mi NW 3.5 mph - N/A   Scattered Clouds
1:27 PM 62.1 °F 53.1 °F 72% 30.08 in 10.0 mi Calm Calm - N/A   Mostly Cloudy
1:45 PM 63.0 °F 51.1 °F 65% 30.07 in 10.0 mi Variable 3.5 mph - N/A   Scattered Clouds
1:56 PM 64.0 °F 48.0 °F 56% 29.98 in 10.0 mi Variable 4.6 mph - N/A   Partly Cloudy
2:56 PM 62.1 °F 50.0 °F 65% 29.98 in 10.0 mi NNW 5.8 mph - N/A   Mostly Cloudy
3:56 PM 66.9 °F 51.1 °F 57% 29.96 in 10.0 mi North 3.5 mph - N/A   Overcast
4:56 PM 66.9 °F 51.1 °F 57% 29.95 in 10.0 mi Calm Calm - N/A   Mostly Cloudy
5:56 PM 63.0 °F 52.0 °F 67% 29.96 in 10.0 mi North - - N/A   Overcast
6:56 PM 63.0 °F 54.0 °F 72% 29.95 in 10.0 mi NNW 5.8 mph - N/A   Mostly Cloudy
7:56 PM 59.0 °F 53.1 °F 81% 29.96 in 10.0 mi NNW 4.6 mph - N/A   Overcast
8:56 PM 55.9 °F 53.1 °F 90% 29.98 in 10.0 mi NNW 9.2 mph - N/A   Clear
9:56 PM 55.0 °F 53.1 °F 93% 29.98 in 10.0 mi NNW 9.2 mph - N/A   Clear
10:56 PM 55.9 °F 53.1 °F 90% 29.98 in 10.0 mi NNW 6.9 mph - N/A   Clear
11:56 PM 55.9 °F 53.1 °F 90% 29.98 in 10.0 mi NNW 4.6 mph - N/A   Clear